Weather History for Dansville, NY

Change the Weather History Date:

Thursday, December 27, 2012

  Actual Average Record
Temperature  
Mean Temperature 26 °F -  
Max Temperature 28 °F 30 °F 63 °F (2008)
Min Temperature 24 °F 16 °F -8 °F (1993)
Degree Days  
Heating Degree Days 39    
Moisture  
Dew Point 23 °F    
Average Humidity 90    
Maximum Humidity 100    
Minimum Humidity 80    
Precipitation  
Precipitation 0.00 in - - ()
Sea Level Pressure  
Sea Level Pressure 29.82 in    
Wind  
Wind Speed 10 mph (NW)    
Max Wind Speed 20 mph    
Max Gust Speed 28 mph    
Visibility 5 miles    
Events Fog , Rain , Snow    
Averages and records for this station are not official NWS values.
T = Trace of Precipitation, MM = Missing Value Source: NWS Daily Summary

Daily Weather History Graph

Daily Weather History Graph

Search for Another Location

Airport:

Trip Planner

Search our weather history database for the weather conditions in past years. The results will help you decide how hot, cold, wet, or windy it might be!

Date:

Astronomy

Dec. 27, 2012 Rise Set
Actual Time 7:39 AM EST 4:44 PM EST
Civil Twilight 7:07 AM EST 5:16 PM EST
Nautical Twilight 6:32 AM EST 5:52 PM EST
Astronomical Twilight 5:58 AM EST 6:26 PM EST
Moon 4:26 PM EST (12/27) 6:48 AM EST (12/27)
Length of Visible Light 10h 08m
Length of Day
9h 04m
Full, 100% of the Moon is Illuminated
Dec 27
Full
Dec 28
Full
Jan 4
Last Quarter
Jan 11
New
Jan 18
First Quarter

Hourly Weather History & Observations

Time (EST) Temp. Windchill Dew Point Humidity Pressure Visibility Wind Dir Wind Speed Gust Speed Precip Events Conditions
12:25 AM 24.8 °F 14.6 °F 24.8 °F 100% 29.70 in 0.8 mi NW 10.4 mph - 0.00 in Snow Light Snow
12:39 AM 24.8 °F 16.1 °F 24.8 °F 100% 29.70 in 0.5 mi NW 8.1 mph - 0.00 in Fog , Snow Snow
12:54 AM 25.0 °F 16.3 °F 24.1 °F 96% 29.75 in 0.5 mi NW 8.1 mph - 0.00 in Fog , Snow Snow
1:21 AM 26.6 °F 20.0 °F 24.8 °F 93% 29.69 in 0.8 mi WNW 5.8 mph - 0.00 in Snow Light Snow
1:41 AM 26.6 °F 19.1 °F 24.8 °F 93% 29.69 in 2.0 mi NW 6.9 mph - 0.00 in Snow Light Snow
1:54 AM 27.0 °F 19.5 °F 25.0 °F 92% 29.74 in 2.5 mi NW 6.9 mph - 0.00 in Snow Light Snow
2:30 AM 26.6 °F 16.8 °F 24.8 °F 93% 29.69 in 2.0 mi NW 10.4 mph - 0.00 in Snow Light Snow
2:42 AM 26.6 °F 16.8 °F 24.8 °F 93% 29.69 in 1.8 mi NW 10.4 mph - 0.00 in Snow Light Snow
2:54 AM 27.0 °F 18.7 °F 26.1 °F 96% 29.74 in 2.0 mi NW 8.1 mph - 0.00 in Snow Light Snow
3:22 AM 28.4 °F 21.2 °F 26.6 °F 93% 29.68 in 4.0 mi WNW 6.9 mph - 0.00 in Snow Light Snow
3:47 AM 28.4 °F 19.1 °F 24.8 °F 86% 29.67 in 4.0 mi NW 10.4 mph - 0.00 in Snow Light Snow
3:54 AM 28.0 °F 18.1 °F 25.0 °F 88% 29.72 in 3.0 mi NW 11.5 mph - 0.00 in Snow Light Snow
4:54 AM 27.0 °F 19.5 °F 25.0 °F 92% 29.72 in 8.0 mi NW 6.9 mph - 0.00 in Snow Light Snow
5:54 AM 27.0 °F 19.5 °F 24.1 °F 89% 29.73 in 10.0 mi WNW 6.9 mph - 0.00 in   Overcast
6:54 AM 27.0 °F 18.0 °F 24.1 °F 89% 29.74 in 4.0 mi NW 9.2 mph - 0.00 in Snow Light Snow
7:46 AM 26.6 °F 16.8 °F 24.8 °F 93% 29.72 in 3.0 mi NW 10.4 mph - 0.00 in Snow Light Snow
7:52 AM 26.6 °F 19.1 °F 24.8 °F 93% 29.72 in 2.5 mi WNW 6.9 mph - 0.00 in Snow Light Snow
7:54 AM 27.0 °F 18.7 °F 25.0 °F 92% 29.77 in 2.5 mi WNW 8.1 mph - 0.00 in Snow Light Snow
8:25 AM 28.4 °F 19.7 °F 26.6 °F 93% 29.72 in 3.0 mi NW 9.2 mph - 0.00 in   Overcast
8:32 AM 28.4 °F 20.4 °F 26.6 °F 93% 29.72 in 3.0 mi WNW 8.1 mph - 0.00 in Rain Light Freezing Rain
8:42 AM 28.4 °F 21.2 °F 26.6 °F 93% 29.72 in 3.0 mi WNW 6.9 mph - 0.00 in Rain Light Freezing Rain
8:54 AM 28.0 °F 18.6 °F 26.1 °F 92% 29.78 in 3.0 mi NW 10.4 mph - 0.00 in Rain Light Freezing Rain
9:22 AM 28.4 °F 18.0 °F 26.6 °F 93% 29.74 in 2.5 mi NW 12.7 mph - 0.00 in Snow Light Snow
9:38 AM 28.4 °F 18.0 °F 26.6 °F 93% 29.75 in 4.0 mi NW 12.7 mph - 0.00 in   Overcast
9:54 AM 27.0 °F 13.9 °F 24.1 °F 89% 29.82 in 2.0 mi NW 18.4 mph 26.5 mph 0.00 in Snow Light Snow
10:03 AM 26.6 °F 13.1 °F 24.8 °F 93% 29.78 in 5.0 mi NW 19.6 mph 27.6 mph 0.00 in Snow Light Snow
10:46 AM 24.8 °F 11.1 °F 23.0 °F 93% 29.80 in 4.0 mi NW 18.4 mph - 0.00 in Rain Light Freezing Rain
10:54 AM 25.0 °F 11.7 °F 21.9 °F 88% 29.86 in 7.0 mi NW 17.3 mph 26.5 mph 0.00 in Rain Light Freezing Rain
11:14 AM 24.8 °F 10.7 °F 21.2 °F 86% 29.82 in 10.0 mi NW 19.6 mph - 0.00 in   Overcast
11:54 AM 24.1 °F 11.0 °F 21.9 °F 91% 29.88 in 6.0 mi NW 16.1 mph 23.0 mph 0.00 in   Overcast
12:54 PM 24.1 °F 12.5 °F 21.0 °F 88% 29.87 in 10.0 mi NNW 12.7 mph - 0.00 in   Overcast
1:54 PM 24.1 °F 13.1 °F 21.0 °F 88% 29.88 in 9.0 mi NNW 11.5 mph - 0.00 in Snow Light Snow
2:19 PM 24.8 °F 14.0 °F 21.2 °F 86% 29.82 in 2.5 mi NNW 11.5 mph - 0.00 in Snow Light Snow
2:33 PM 24.8 °F 14.0 °F 21.2 °F 86% 29.82 in 1.8 mi NNW 11.5 mph - 0.00 in Snow Light Snow
2:39 PM 24.8 °F 14.6 °F 21.2 °F 86% 29.83 in 3.0 mi NNW 10.4 mph - 0.00 in Snow Light Snow
2:54 PM 25.0 °F 14.8 °F 21.0 °F 85% 29.88 in 7.0 mi NNW 10.4 mph - 0.00 in Snow Light Snow
3:54 PM 25.0 °F 13.6 °F 19.9 °F 81% 29.91 in 10.0 mi NNW 12.7 mph - 0.00 in   Overcast
4:54 PM 25.0 °F 13.1 °F 19.9 °F 81% 29.94 in 10.0 mi NW 13.8 mph 20.7 mph 0.00 in   Overcast
5:54 PM 25.0 °F 13.6 °F 21.0 °F 85% 29.97 in 10.0 mi NW 12.7 mph - 0.00 in   Overcast
6:04 PM 24.8 °F 14.6 °F 21.2 °F 86% 29.92 in 7.0 mi NW 10.4 mph - 0.00 in   Overcast
6:16 PM 24.8 °F 12.9 °F 21.2 °F 86% 29.93 in 7.0 mi NW 13.8 mph - 0.00 in Rain Light Freezing Rain
6:41 PM 24.8 °F 16.9 °F 21.2 °F 86% 29.93 in 6.0 mi NW 6.9 mph - 0.00 in   Overcast
6:54 PM 25.0 °F 15.5 °F 21.9 °F 88% 29.99 in 7.0 mi NW 9.2 mph - 0.00 in   Overcast
7:54 PM 25.0 °F 16.3 °F 21.9 °F 88% 30.01 in 10.0 mi WNW 8.1 mph - N/A   Overcast
8:54 PM 25.0 °F 14.2 °F 21.0 °F 85% 30.02 in 10.0 mi NW 11.5 mph - N/A   Overcast
9:54 PM 26.1 °F 15.6 °F 21.9 °F 84% 30.05 in 10.0 mi NW 11.5 mph - 0.00 in   Overcast
10:16 PM 26.6 °F 14.7 °F 21.2 °F 80% 30.01 in 10.0 mi NW 15.0 mph - 0.00 in   Overcast
10:54 PM 25.0 °F 14.2 °F 21.9 °F 88% 30.06 in 10.0 mi NNW 11.5 mph - 0.00 in   Overcast
11:13 PM 24.8 °F 14.6 °F 21.2 °F 86% 30.01 in 10.0 mi NNW 10.4 mph - N/A   Overcast
11:54 PM 25.0 °F 16.3 °F 21.9 °F 88% 30.07 in 10.0 mi NNW 8.1 mph - N/A   Overcast